カタログに戻る

STARLINK-35543

運用中通信VLEO
NORAD 66201·PAYLOAD·🇺🇸 United States

打ち上げ Oct 26, 2025 から Cape Canaveral Space Force Station

Loading…

次のパス (今後24時間)

TLE

最新Source: CelesTrak SupGP

元期: Sep 14, 2026, 21:22 UTC

1 66201C 25243AA  26257.89076389 -.00007095  00000+0 -22820-3 0  2579
2 66201  53.1587  85.0092 0001350  84.6278 192.9678 15.31701066    17

AllMySatでSTARLINK-35543をリアルタイム追跡

Download on the App Store